Roanoke, VA

7:27 AM EDT on April 23, 2017 (GMT -0400)
Roanoke Regional-Woodrum

Weather History for KROA - May, 2014

Change the Weather History Date:

Wednesday, May 28, 2014

  Actual Average Record
Temperature  
Mean Temperature 79 °F 68 °F  
Max Temperature 89 °F 79 °F 98 °F (1941)
Min Temperature 68 °F 57 °F 39 °F (1994)
Degree Days  
Heating Degree Days 0 2  
Month to date heating degree days 54 97  
Since 1 July heating degree days 4366 4129  
Cooling Degree Days 14 4  
Month to date cooling degree days 121 73  
Year to date cooling degree days 133 102  
Growing Degree Days 28 (Base 50)    
Moisture  
Dew Point 60 °F    
Average Humidity 55    
Maximum Humidity 73    
Minimum Humidity 36    
Precipitation  
Precipitation 0.00 in 0.15 in 2.33 in (1990)
Month to date precipitation 2.21 3.62  
Year to date precipitation 15.43 16.26  
Snow  
Snow 0.00 in - - ()
Month to date snowfall 0.0  
Since 1 July snowfall 28.0  
Snow Depth 0.00 in    
Sea Level Pressure  
Sea Level Pressure 29.99 in    
Wind  
Wind Speed 7 mph (West)    
Max Wind Speed 16 mph    
Max Gust Speed 21 mph    
Visibility 10 miles    
Events      
T = Trace of Precipitation, MM = Missing Value Source: NWS Daily Summary

Daily Weather History Graph

Daily Weather History Graph

Search for Another Location

Airport or City:

Trip Planner

Search our weather history database for the weather conditions in past years. The results will help you decide how hot, cold, wet, or windy it might be!

Date:

Astronomy

May. 28, 2014 Rise Set
Actual Time 6:02 AM EDT 8:32 PM EDT
Civil Twilight 5:32 AM EDT 9:02 PM EDT
Nautical Twilight 4:55 AM EDT 9:39 PM EDT
Astronomical Twilight 4:13 AM EDT 10:21 PM EDT
Moon 6:05 AM EDT (5/28) 8:30 PM EDT (5/28)
Length of Visible Light 15h 29m
Length of Day
14h 29m
Waning Crescent, 0% of the Moon is Illuminated
May 28
Waning Crescent
May 28
New
Jun 5
First Quarter
Jun 13
Full
Jun 19
Last Quarter

Hourly Weather History & Observations

Time (EDT) Temp. Heat Index Dew Point Humidity Pressure Visibility Wind Dir Wind Speed Gust Speed Precip Events Conditions
12:54 AM 71.1 °F - 57.9 °F 63% 29.99 in 10.0 mi WNW 6.9 mph - N/A   Mostly Cloudy
1:54 AM 70.0 °F - 59.0 °F 68% 29.99 in 10.0 mi WNW 6.9 mph - N/A   Scattered Clouds
2:54 AM 69.1 °F - 59.0 °F 70% 29.98 in 10.0 mi West 6.9 mph - N/A   Scattered Clouds
3:54 AM 70.0 °F - 59.0 °F 68% 29.98 in 10.0 mi West 11.5 mph - N/A   Scattered Clouds
4:54 AM 69.1 °F - 59.0 °F 70% 29.97 in 10.0 mi WNW 5.8 mph - N/A   Scattered Clouds
5:54 AM 68.0 °F - 59.0 °F 73% 29.96 in 10.0 mi West 8.1 mph - N/A   Scattered Clouds
6:54 AM 69.1 °F - 60.1 °F 73% 29.99 in 10.0 mi West 9.2 mph - N/A   Mostly Cloudy
7:54 AM 70.0 °F - 60.1 °F 71% 30.00 in 10.0 mi West 9.2 mph - N/A   Mostly Cloudy
8:54 AM 73.4 °F - 62.6 °F 69% 30.05 in 10.0 mi WSW 4.6 mph - N/A   Mostly Cloudy
9:54 AM 78.1 °F - 64.0 °F 62% 30.01 in 10.0 mi WSW 8.1 mph - N/A   Mostly Cloudy
10:54 AM 81.0 °F 82.5 °F 64.0 °F 56% 30.01 in 10.0 mi West 10.4 mph - N/A   Mostly Cloudy
11:54 AM 81.0 °F 81.9 °F 62.1 °F 52% 30.02 in 10.0 mi WNW 11.5 mph - N/A   Mostly Cloudy
12:54 PM 82.9 °F 83.7 °F 62.1 °F 49% 30.01 in 10.0 mi WNW 11.5 mph - N/A   Mostly Cloudy
1:54 PM 86.0 °F 85.7 °F 60.1 °F 41% 30.00 in 10.0 mi WNW 8.1 mph - N/A   Mostly Cloudy
2:54 PM 87.1 °F 86.1 °F 57.9 °F 37% 29.98 in 10.0 mi WNW 10.4 mph - N/A   Mostly Cloudy
3:54 PM 89.1 °F 88.2 °F 59.0 °F 36% 29.95 in 10.0 mi NW 8.1 mph - N/A   Mostly Cloudy
4:54 PM 81.0 °F 81.3 °F 59.0 °F 47% 29.95 in 10.0 mi West 9.2 mph - N/A   Mostly Cloudy
5:54 PM 82.4 °F 82.0 °F 57.2 °F 42% 29.99 in 10.0 mi West 9.2 mph - N/A   Mostly Cloudy
6:54 PM 82.4 °F 82.5 °F 59.0 °F 45% 29.99 in 10.0 mi West 3.5 mph - N/A   Scattered Clouds
7:54 PM 79.0 °F - 62.1 °F 56% 29.97 in 10.0 mi WSW 5.8 mph - N/A   Scattered Clouds
8:54 PM 75.9 °F - 62.1 °F 62% 29.99 in 10.0 mi West 3.5 mph - N/A   Scattered Clouds
9:54 PM 73.9 °F - 63.0 °F 68% 30.00 in 10.0 mi West 4.6 mph - N/A   Scattered Clouds
10:54 PM 75.0 °F - 60.1 °F 60% 30.02 in 10.0 mi NW 4.6 mph - N/A   Scattered Clouds
11:54 PM 73.9 °F - 62.1 °F 66% 30.02 in 10.0 mi NE 4.6 mph - N/A   Partly Cloudy